Wind_Speed
7 6 6 8 10 12 14 16 16 15 13 11 9 9 8 6 7 8 7 7 8 8 7 8 7 5 6 7 7 8 9 10 10 11 11 11 12 13 14 14 14 15 16 16
8 5 6 8 11 13 14 16 15 14 12 10 9 7 6 6 6 6 6 4 6 3 4 4 4 5 5 6 6 6 6 8 9 10 11 11 12 13 13 13 14 15 16 16
8 5 6 8 11 12 12 14 14 14 13 9 9 8 7 6 4 4 4 3 3 2 2 2 3 4 4 4 4 5 6 8 9 9 10 10 11 12 13 14 15 15 16 16
8 6 6 8 10 11 12 12 13 14 13 10 10 10 8 6 2 3 4 3 3 2 2 2 3 2 1 2 3 4 6 7 7 8 9 10 11 12 13 14 15 15 15 16
7 7 6 7 10 11 11 10 11 12 10 9 9 9 7 4 1 1 3 4 2 2 1 2 3 2 0 1 2 4 6 6 7 9 10 11 12 13 14 14 15 15 16 17
6 8 8 8 9 10 10 9 9 10 9 8 7 5 3 3 4 3 4 5 3 3 3 4 5 3 2 2 4 5 6 7 8 10 11 12 13 14 15 16 16 17 18 18
7 8 9 9 9 9 9 9 9 10 8 6 5 3 3 3 4 5 5 5 4 5 5 6 5 4 3 3 5 6 7 8 9 10 12 13 14 16 17 17 18 19 19 20
9 8 8 8 9 8 7 8 9 9 7 6 2 2 3 3 3 4 5 5 4 5 5 5 4 4 3 4 5 7 8 9 10 11 13 14 15 17 18 19 20 20 21 22
11 9 9 9 9 9 7 8 9 9 9 4 2 3 3 3 4 5 5 5 5 4 4 4 4 4 4 4 5 7 8 9 10 12 13 15 16 18 19 21 21 22 23 23
11 11 10 10 9 9 9 9 9 8 5 1 1 2 3 4 3 3 4 4 5 5 4 4 4 3 3 4 5 7 8 9 11 13 15 16 18 19 21 22 23 23 24 25
13 13 11 11 11 11 11 11 10 9 7 6 4 1 0 1 1 1 2 3 4 4 4 3 3 3 4 5 6 8 9 10 12 14 16 18 19 21 22 23 24 25 25 27
14 14 13 13 12 13 12 12 10 9 8 7 5 4 3 1 1 1 2 3 3 3 3 3 3 3 4 6 7 8 10 11 12 14 16 18 20 22 23 24 25 26 27 28
17 16 15 13 13 13 13 12 12 11 10 9 7 5 4 3 1 1 2 2 2 2 2 3 3 4 5 7 8 9 10 11 13 15 17 19 21 23 25 26 27 27 28 29
17 16 14 13 12 12 13 13 13 13 11 9 8 7 6 5 2 1 1 1 2 3 3 3 4 5 7 8 9 11 12 13 15 17 18 20 22 24 26 27 29 29 30 31
15 15 14 12 12 13 13 14 14 14 12 11 9 8 8 5 3 3 2 2 2 3 4 5 6 7 8 10 11 12 13 15 16 18 19 21 23 25 27 29 30 31 32 33
14 14 13 12 12 14 14 15 16 15 14 13 12 9 9 7 5 4 4 3 3 4 5 6 8 8 10 11 12 13 15 16 18 19 21 23 25 26 28 30 31 32 33 34
17 16 15 14 14 15 15 16 16 15 15 14 12 10 10 9 7 5 5 4 4 5 7 8 9 10 11 12 13 15 16 18 19 21 22 24 26 28 29 31 32 33 34 35
17 17 16 16 16 16 14 16 16 16 16 15 13 13 12 10 8 7 7 6 6 7 8 10 11 12 13 14 15 17 18 20 21 23 24 26 28 29 30 31 33 34 35 35
18 17 17 17 17 16 17 17 17 17 17 16 14 15 14 11 9 8 8 8 9 10 10 11 12 13 14 16 17 18 20 21 23 24 25 27 28 29 30 32 33 34 35 36
19 18 18 18 18 18 17 17 18 19 19 19 17 16 15 13 11 10 11 11 11 11 12 13 14 15 16 17 19 20 21 23 24 25 27 28 29 31 32 33 35 36 37 37
21 20 20 19 18 17 16 17 18 19 20 20 20 17 15 14 13 13 13 13 13 13 14 15 16 17 18 19 20 21 23 24 25 26 27 29 30 31 33 34 36 36 37 37
19 20 21 20 18 17 16 17 17 18 19 21 21 20 17 15 15 15 15 15 15 15 16 16 17 18 19 20 22 23 24 25 26 28 29 30 31 33 34 35 36 37 38 38
21 20 20 19 19 18 16 15 14 15 18 20 22 20 19 17 15 16 16 16 17 17 17 18 19 20 21 22 23 25 26 27 28 29 30 31 33 34 35 36 36 37 38 38
21 20 21 21 18 18 17 16 16 16 17 18 19 19 19 16 15 16 17 17 17 18 18 19 20 21 22 23 24 26 27 28 29 30 32 33 34 35 36 37 37 37 38 39
19 20 21 20 17 17 18 17 15 16 15 16 17 17 17 16 15 16 17 18 18 19 20 20 21 23 24 24 26 27 28 29 30 32 33 34 35 36 37 37 38 39 39 39
21 22 21 21 19 19 17 16 16 16 16 16 16 16 16 16 15 16 17 19 20 21 22 22 23 24 25 26 27 28 29 31 32 33 34 35 36 37 37 38 39 40 40 39
Wind_Direction
275 285 322 338 343 338 334 329 326 326 326 326 320 314 309 293 281 273 258 250 236 241 247 258 257 266 284 291 289 289 297 302 303 306 309 309 309 311 307 302 300 299 297 295
274 290 323 332 333 328 325 321 326 332 334 334 332 320 315 292 274 264 257 217 187 224 248 244 247 266 282 294 297 300 304 309 311 313 315 314 314 315 311 307 306 306 303 298
277 288 314 320 315 316 318 320 326 329 335 341 338 334 324 308 281 255 227 188 171 217 245 219 240 253 279 299 304 300 304 313 317 318 320 319 319 319 318 317 315 313 310 306
283 286 296 301 304 310 313 317 324 327 325 328 329 328 320 320 274 226 200 175 164 189 217 197 192 207 261 309 316 317 315 321 324 327 328 328 328 328 326 323 320 317 315 312
287 280 282 292 298 306 310 316 325 331 325 322 319 319 327 342 332 145 163 166 143 172 163 162 152 140 138 341 340 335 333 339 340 338 337 338 337 334 332 329 326 323 319 316
284 281 287 292 289 296 306 308 317 324 324 323 329 335 360 54 82 111 123 139 124 125 121 113 118 113 103 40 4 356 356 350 346 344 343 342 341 340 339 336 332 329 325 321
278 282 291 288 281 289 299 305 307 314 315 321 341 11 70 101 98 103 105 113 110 120 118 119 113 101 74 37 8 2 357 353 352 349 347 347 347 346 343 340 336 333 329 325
282 283 284 279 277 279 287 293 301 310 323 322 346 76 79 99 103 95 98 97 90 115 117 121 113 87 57 25 7 1 357 356 354 352 351 351 349 347 344 342 338 335 331 328
282 285 278 269 262 266 261 270 281 298 322 347 111 97 85 96 105 98 94 94 91 106 109 103 94 74 50 23 7 360 357 356 355 354 353 351 349 347 345 342 339 336 333 331
279 283 270 261 260 255 257 265 272 283 298 321 98 88 91 88 97 101 104 105 103 98 97 92 81 65 42 17 3 359 357 357 356 355 353 349 347 346 344 343 341 338 336 333
273 278 272 262 258 258 257 263 265 265 262 259 248 252 115 70 75 112 99 101 103 99 92 84 63 39 23 8 2 359 356 354 353 351 349 348 347 345 344 343 341 338 335 333
268 269 270 265 263 260 259 259 256 252 253 256 255 266 269 296 355 106 109 110 101 93 84 66 34 17 7 2 359 356 352 349 346 345 345 345 344 344 343 341 339 337 335 333
264 267 268 263 259 257 253 249 246 245 245 251 261 274 278 301 360 93 90 92 82 66 58 41 12 0 357 356 353 349 345 343 340 339 339 340 341 340 340 339 338 336 334 332
264 266 266 262 255 250 246 240 240 243 243 250 260 272 283 296 313 324 7 29 28 15 8 359 349 345 345 345 342 339 338 337 335 334 334 335 336 336 336 335 335 335 334 332
266 266 266 260 248 241 236 233 235 239 244 253 260 267 284 295 300 311 318 334 351 344 335 334 332 332 333 333 332 330 330 330 329 329 329 330 331 332 332 332 332 332 332 332
266 264 261 254 241 234 233 234 237 240 243 253 259 265 280 290 301 307 315 316 314 312 313 315 316 318 321 322 321 322 322 323 324 324 325 325 326 328 330 331 330 330 330 330
267 262 255 247 241 237 237 236 239 241 246 254 262 268 277 285 294 297 315 310 303 301 297 297 301 305 309 312 314 315 316 319 320 320 320 321 323 325 327 328 328 329 329 329
265 261 256 249 245 240 233 232 237 240 245 251 258 266 274 280 284 289 296 295 293 296 294 292 295 298 302 306 309 311 314 316 318 318 319 321 322 324 325 326 328 329 329 329
260 256 253 252 249 244 236 236 239 240 246 249 256 266 270 273 279 283 284 285 287 287 288 290 293 296 300 302 306 309 311 314 316 317 318 320 322 324 324 325 327 328 328 328
251 246 247 250 251 246 245 245 246 247 244 250 257 266 270 274 276 282 284 283 281 282 284 289 293 296 299 302 304 306 308 311 314 315 316 319 321 322 323 324 325 326 327 327
249 248 251 250 252 250 250 251 252 251 251 252 254 260 261 268 272 276 279 279 278 281 284 287 290 295 298 301 303 303 306 309 312 314 316 318 319 321 322 323 324 326 326 326
254 255 256 253 255 255 251 252 254 254 256 256 255 257 257 258 266 271 273 273 275 279 283 286 289 293 297 299 300 302 304 307 309 312 315 316 317 317 319 321 322 324 325 325
257 260 261 264 264 259 252 259 259 258 258 254 252 253 255 258 264 270 273 275 279 281 284 287 288 293 296 297 298 300 303 306 308 310 312 314 315 317 318 320 321 322 323 324
258 263 265 266 267 264 257 265 269 268 261 256 248 248 252 257 262 269 272 274 278 281 283 285 288 291 293 295 297 300 303 305 308 309 311 313 314 316 317 318 320 321 322 323
263 267 268 272 274 271 266 269 273 272 267 261 252 250 255 261 266 272 276 276 278 280 282 284 287 290 292 295 297 300 302 304 306 308 310 311 313 314 316 317 319 320 321 322
262 266 269 268 272 269 266 271 274 276 275 268 257 254 263 268 273 276 279 280 279 280 282 285 288 290 292 295 298 300 302 303 305 307 310 312 313 314 314 316 318 319 320 321
Height
5885 5884 5883 5881 5879 5878 5876 5875 5873 5871 5870 5867 5865 5863 5862 5860 5859 5858 5858 5858 5859 5860 5862 5864 5865 5866 5866 5866 5866 5867 5866 5865 5864 5863 5861 5860 5858 5856 5854 5852 5850 5849 5848 5846
5883 5882 5880 5878 5877 5876 5875 5873 5871 5870 5868 5865 5863 5861 5860 5859 5858 5857 5857 5857 5857 5859 5859 5860 5862 5863 5863 5864 5864 5864 5863 5862 5862 5860 5859 5857 5855 5853 5851 5848 5847 5845 5844 5842
5879 5879 5877 5876 5875 5874 5873 5872 5870 5869 5866 5865 5863 5861 5859 5857 5857 5857 5856 5857 5858 5859 5858 5859 5861 5861 5862 5862 5862 5862 5861 5860 5859 5858 5856 5855 5853 5851 5848 5846 5843 5841 5839 5837
5877 5876 5876 5875 5874 5873 5872 5870 5869 5867 5865 5864 5863 5860 5858 5856 5856 5855 5856 5856 5857 5858 5858 5858 5859 5860 5860 5860 5860 5860 5859 5858 5857 5856 5854 5852 5850 5848 5845 5842 5840 5838 5836 5833
5875 5874 5874 5873 5872 5871 5870 5869 5867 5865 5864 5862 5861 5859 5857 5855 5855 5855 5855 5856 5856 5857 5857 5856 5857 5858 5859 5859 5859 5858 5857 5856 5855 5853 5851 5849 5847 5844 5842 5839 5837 5834 5832 5829
5873 5872 5872 5871 5870 5869 5869 5868 5866 5864 5863 5861 5859 5858 5856 5855 5855 5855 5855 5855 5856 5856 5856 5856 5857 5857 5857 5857 5857 5856 5855 5854 5852 5851 5849 5846 5844 5841 5839 5836 5833 5830 5828 5825
5870 5870 5869 5868 5868 5868 5867 5866 5865 5863 5861 5860 5859 5857 5856 5855 5855 5855 5855 5855 5856 5855 5855 5856 5856 5857 5855 5855 5855 5854 5853 5852 5850 5849 5846 5844 5841 5839 5836 5833 5830 5827 5824 5821
5867 5867 5867 5866 5866 5865 5864 5864 5864 5862 5860 5859 5858 5857 5857 5856 5855 5855 5855 5855 5855 5855 5855 5855 5855 5855 5855 5854 5854 5853 5852 5850 5849 5846 5844 5842 5839 5836 5833 5830 5826 5823 5820 5816
5864 5864 5864 5863 5863 5863 5862 5861 5861 5860 5859 5858 5857 5857 5857 5855 5855 5855 5854 5854 5854 5854 5854 5854 5853 5854 5854 5853 5852 5852 5850 5849 5846 5844 5842 5839 5836 5833 5830 5826 5823 5819 5815 5811
5860 5860 5861 5860 5860 5860 5860 5859 5859 5859 5858 5857 5856 5856 5856 5855 5854 5854 5854 5854 5854 5854 5854 5853 5853 5853 5853 5852 5851 5850 5848 5846 5844 5842 5839 5836 5833 5830 5827 5823 5819 5815 5811 5807
5856 5857 5858 5857 5857 5857 5858 5857 5856 5856 5856 5856 5855 5858 5856 5855 5853 5853 5853 5853 5853 5853 5852 5852 5852 5851 5851 5850 5849 5847 5846 5844 5842 5839 5837 5834 5831 5827 5823 5819 5815 5811 5807 5802
5852 5853 5853 5854 5854 5854 5854 5853 5853 5854 5854 5853 5853 5857 5854 5853 5852 5851 5851 5851 5851 5851 5850 5850 5850 5849 5849 5848 5846 5845 5843 5841 5839 5837 5834 5831 5828 5824 5820 5816 5812 5807 5802 5798
5849 5849 5850 5850 5852 5851 5850 5850 5850 5850 5850 5850 5851 5854 5851 5851 5850 5849 5849 5849 5849 5849 5848 5848 5847 5847 5846 5845 5844 5843 5841 5839 5837 5834 5832 5828 5825 5821 5817 5812 5808 5803 5798 5793
5844 5845 5846 5847 5846 5846 5846 5846 5846 5847 5847 5847 5848 5849 5849 5848 5848 5847 5847 5846 5846 5846 5846 5845 5845 5845 5844 5842 5841 5840 5838 5836 5834 5831 5828 5825 5821 5817 5813 5808 5803 5798 5793 5788
5840 5840 5841 5841 5841 5841 5842 5842 5842 5843 5843 5844 5845 5845 5845 5845 5845 5845 5844 5844 5844 5843 5843 5843 5842 5842 5841 5840 5838 5837 5835 5832 5830 5828 5825 5821 5817 5813 5808 5803 5798 5793 5788 5782
5835 5836 5836 5837 5837 5837 5838 5839 5839 5839 5839 5840 5840 5841 5842 5842 5842 5842 5841 5841 5841 5841 5840 5839 5839 5839 5838 5837 5835 5833 5831 5829 5826 5823 5820 5817 5813 5808 5804 5799 5793 5788 5782 5776
5831 5832 5832 5833 5833 5834 5835 5836 5835 5835 5836 5836 5836 5838 5838 5838 5839 5839 5839 5839 5838 5838 5837 5836 5836 5836 5835 5833 5832 5830 5828 5825 5822 5819 5816 5812 5808 5803 5799 5794 5788 5783 5777 5771
5826 5826 5827 5828 5830 5830 5833 5831 5831 5832 5831 5832 5832 5834 5834 5835 5835 5835 5836 5836 5835 5835 5834 5834 5833 5832 5831 5829 5828 5826 5823 5820 5817 5814 5810 5807 5802 5798 5793 5788 5782 5777 5771 5765
5821 5822 5822 5823 5824 5825 5826 5827 5827 5827 5827 5828 5829 5830 5831 5831 5831 5832 5832 5832 5832 5831 5831 5830 5829 5828 5827 5825 5823 5821 5818 5815 5812 5809 5805 5801 5797 5792 5787 5782 5776 5770 5764 5758
5816 5816 5818 5818 5818 5819 5822 5822 5822 5823 5822 5824 5825 5825 5826 5827 5827 5828 5828 5828 5827 5827 5827 5826 5824 5823 5822 5820 5818 5815 5813 5810 5807 5803 5799 5795 5790 5785 5780 5775 5770 5764 5758 5751
5811 5811 5812 5813 5812 5814 5816 5817 5818 5819 5820 5819 5820 5820 5822 5823 5823 5824 5823 5823 5823 5823 5822 5821 5820 5818 5816 5815 5812 5810 5807 5804 5801 5797 5793 5788 5784 5779 5774 5768 5763 5757 5751 5745
5804 5805 5806 5806 5808 5811 5811 5811 5813 5814 5814 5814 5814 5816 5816 5817 5818 5818 5819 5818 5818 5817 5817 5816 5814 5813 5811 5809 5807 5804 5801 5798 5794 5791 5786 5782 5777 5772 5767 5761 5756 5750 5744 5737
5799 5800 5800 5802 5804 5804 5804 5805 5806 5807 5808 5809 5809 5810 5811 5811 5812 5813 5813 5813 5812 5812 5811 5810 5808 5807 5805 5803 5800 5798 5795 5791 5788 5784 5780 5775 5770 5765 5760 5754 5749 5742 5736 5730
5793 5793 5795 5795 5796 5797 5799 5800 5800 5801 5802 5803 5804 5805 5806 5806 5807 5807 5807 5807 5806 5806 5805 5804 5802 5801 5799 5796 5794 5791 5788 5785 5781 5777 5773 5768 5763 5758 5752 5747 5741 5735 5729 5722
5787 5787 5788 5788 5789 5790 5792 5794 5794 5795 5795 5796 5796 5798 5800 5800 5801 5801 5801 5800 5800 5799 5798 5797 5796 5794 5792 5789 5787 5784 5781 5777 5774 5769 5765 5760 5755 5750 5745 5739 5733 5727 5721 5714
5782 5782 5783 5784 5784 5786 5787 5788 5789 5789 5789 5790 5791 5791 5793 5794 5795 5795 5795 5794 5793 5793 5792 5790 5789 5787 5784 5782 5779 5776 5773 5769 5765 5761 5757 5752 5747 5742 5737 5731 5725 5719 5713 5706